Weather History for KGBG - February, 2013

Change the Weather History Date:

Tuesday, February 26, 2013

  Actual Average Record
Temperature  
Mean Temperature 32 °F -  
Max Temperature 34 °F 40 °F 64 °F (1971)
Min Temperature 30 °F 23 °F -14 °F (1963)
Degree Days  
Heating Degree Days 33    
Moisture  
Dew Point 30 °F    
Average Humidity 90    
Maximum Humidity 100    
Minimum Humidity 77    
Precipitation  
Precipitation 0.02 in - - ()
Sea Level Pressure  
Sea Level Pressure 29.61 in    
Wind  
Wind Speed 19 mph (NNE)    
Max Wind Speed 24 mph    
Max Gust Speed 33 mph    
Visibility 5 miles    
Events Snow    
Averages and records for this station are not official NWS values.
T = Trace of Precipitation, MM = Missing Value Source: NWS Daily Summary

Daily Weather History Graph

Daily Weather History Graph

Search for Another Location

Airport or City:

Trip Planner

Search our weather history database for the weather conditions in past years. The results will help you decide how hot, cold, wet, or windy it might be!

Date:

Astronomy

Feb. 26, 2013 Rise Set
Actual Time 6:40 AM CST 5:49 PM CST
Civil Twilight 6:12 AM CST 6:17 PM CST
Nautical Twilight 5:40 AM CST 6:49 PM CST
Astronomical Twilight 5:08 AM CST 7:21 PM CST
Moon 7:07 PM CST (2/26) 6:41 AM CST (2/26)
Length of Visible Light 12h 04m
Length of Day
11h 09m
Full, 99% of the Moon is Illuminated
Feb 26
Full
Mar 4
Last Quarter
Mar 11
New
Mar 19
First Quarter
Mar 27
Full

Hourly Weather History & Observations

Time (CST) Temp. Windchill Dew Point Humidity Pressure Visibility Wind Dir Wind Speed Gust Speed Precip Events Conditions
12:15 AM 34.9 °F 24.9 °F 28.4 °F 77% 29.83 in 10.0 mi ENE 16.1 mph 24.2 mph N/A   Overcast
12:35 AM 34.7 °F 24.0 °F 28.4 °F 78% 29.82 in 10.0 mi ENE 18.4 mph 24.2 mph N/A   Overcast
12:55 AM 34.7 °F 25.5 °F 28.4 °F 78% 29.82 in 10.0 mi ENE 13.8 mph 21.9 mph N/A   Overcast
1:15 AM 34.7 °F 24.0 °F 28.4 °F 78% 29.79 in 10.0 mi ENE 18.4 mph 25.3 mph N/A   Overcast
1:35 AM 34.7 °F 24.3 °F 28.4 °F 78% 29.78 in 10.0 mi ENE 17.3 mph 24.2 mph N/A   Overcast
1:55 AM 34.5 °F 23.4 °F 28.8 °F 79% 29.77 in 10.0 mi ENE 19.6 mph 25.3 mph N/A   Overcast
2:15 AM 34.2 °F 23.0 °F 28.6 °F 80% 29.74 in 10.0 mi NE 19.6 mph 25.3 mph N/A   Overcast
2:35 AM 34.2 °F 24.4 °F 28.8 °F 81% 29.72 in 10.0 mi NE 15.0 mph 24.2 mph N/A   Overcast
2:55 AM 34.2 °F 23.0 °F 28.8 °F 81% 29.70 in 10.0 mi NE 19.6 mph 27.6 mph N/A   Overcast
3:15 AM 34.0 °F 22.7 °F 28.9 °F 82% 29.68 in 10.0 mi NE 19.6 mph 25.3 mph N/A   Overcast
3:35 AM 34.2 °F 23.3 °F 28.4 °F 79% 29.67 in 10.0 mi NE 18.4 mph 27.6 mph N/A   Overcast
3:55 AM 34.0 °F 21.8 °F 28.4 °F 80% 29.66 in 10.0 mi NE 23.0 mph 28.8 mph N/A   Overcast
4:15 AM 33.8 °F 22.2 °F 28.4 °F 81% 29.64 in 10.0 mi NE 20.7 mph 29.9 mph N/A   Overcast
4:35 AM 33.8 °F 22.2 °F 28.6 °F 81% 29.64 in 10.0 mi NE 20.7 mph 26.5 mph N/A   Overcast
4:55 AM 33.8 °F 22.2 °F 28.2 °F 80% 29.63 in 10.0 mi ENE 20.7 mph 27.6 mph N/A   Overcast
5:15 AM 33.8 °F 21.3 °F 28.4 °F 81% 29.60 in 10.0 mi NE 24.2 mph 28.8 mph N/A   Overcast
5:35 AM 33.8 °F 21.9 °F 28.4 °F 81% 29.60 in 10.0 mi NE 21.9 mph 28.8 mph N/A   Overcast
5:55 AM 33.8 °F 22.5 °F 28.4 °F 81% 29.60 in 10.0 mi NE 19.6 mph 32.2 mph N/A   Overcast
6:15 AM 34.0 °F 23.0 °F 28.2 °F 79% 29.61 in 7.0 mi NE 18.4 mph 28.8 mph N/A Snow Light Snow
6:35 AM 34.0 °F 21.5 °F 27.7 °F 78% 29.60 in 10.0 mi ENE 24.2 mph 33.4 mph N/A   Overcast
6:55 AM 34.2 °F 22.6 °F 27.5 °F 77% 29.60 in 10.0 mi NE 20.7 mph 32.2 mph N/A   Overcast
7:15 AM 33.3 °F 21.2 °F 28.4 °F 82% 29.59 in 0.8 mi NE 21.9 mph 28.8 mph N/A Snow Light Snow
7:35 AM 32.0 °F 18.9 °F 30.6 °F 94% 29.59 in 0.2 mi NE 24.2 mph 32.2 mph N/A Snow Snow
7:55 AM 31.6 °F 19.3 °F 31.6 °F 100% 29.58 in 0.2 mi NE 20.7 mph 26.5 mph N/A Snow Heavy Snow
8:15 AM 31.6 °F 18.4 °F 31.6 °F 100% 29.56 in 0.2 mi NE 24.2 mph 29.9 mph N/A Snow Snow
8:35 AM 31.8 °F 19.3 °F 31.8 °F 100% 29.56 in 0.2 mi NE 21.9 mph 26.5 mph 0.01 in Snow Snow
8:55 AM 31.8 °F 19.3 °F 31.1 °F 97% 29.56 in 0.5 mi NE 21.9 mph 27.6 mph 0.01 in Snow Snow
9:15 AM 32.0 °F 20.1 °F 31.1 °F 96% 29.57 in 0.8 mi NE 19.6 mph 27.6 mph N/A Snow Light Snow
9:35 AM 32.0 °F 20.1 °F 31.1 °F 96% 29.55 in 0.8 mi NE 19.6 mph - 0.01 in Snow Light Snow
9:55 AM 32.0 °F 19.5 °F 31.1 °F 96% 29.54 in 0.8 mi NE 21.9 mph 28.8 mph 0.01 in Snow Light Snow
10:15 AM 32.2 °F 19.1 °F 31.5 °F 97% 29.52 in 0.8 mi NNE 24.2 mph 31.1 mph N/A Snow Light Snow
10:35 AM 32.0 °F 18.9 °F 31.3 °F 97% 29.52 in 1.2 mi NE 24.2 mph 31.1 mph N/A Snow Light Snow
10:55 AM 32.0 °F 18.9 °F 31.5 °F 98% 29.51 in 1.2 mi NE 24.2 mph 29.9 mph N/A Snow Light Snow
11:15 AM 32.2 °F 19.7 °F 31.5 °F 97% 29.52 in 0.8 mi NE 21.9 mph 29.9 mph N/A Snow Light Snow
11:35 AM 32.4 °F 20.3 °F 31.6 °F 97% 29.52 in 0.5 mi NE 20.7 mph 27.6 mph N/A Snow Light Snow
11:55 AM 32.4 °F 20.6 °F 31.6 °F 97% 29.52 in 0.8 mi NNE 19.6 mph 25.3 mph N/A Snow Light Snow
12:15 PM 32.4 °F 20.6 °F 31.6 °F 97% 29.51 in 0.8 mi NNE 19.6 mph 25.3 mph N/A Snow Light Snow
12:35 PM 32.5 °F 20.5 °F 31.5 °F 96% 29.50 in 1.0 mi NNE 20.7 mph 26.5 mph N/A Snow Light Snow
12:55 PM - - - N/A% - - North - - N/A   Overcast
1:15 PM - - - N/A% - - North - - N/A   Unknown
4:15 PM 31.8 °F 19.6 °F 30.2 °F 94% 29.53 in 5.0 mi North 20.7 mph 26.5 mph N/A   Unknown
4:35 PM 31.8 °F 19.3 °F 29.7 °F 92% 29.53 in 10.0 mi NNE 21.9 mph - N/A   Unknown
4:55 PM 31.8 °F 18.7 °F 29.7 °F 92% 29.54 in 7.0 mi NNE 24.2 mph 31.1 mph N/A   Unknown
5:15 PM 31.8 °F 19.6 °F 29.3 °F 90% 29.54 in 10.0 mi NNE 20.7 mph 27.6 mph N/A   Unknown
5:35 PM 31.6 °F 19.3 °F 30.2 °F 94% 29.55 in 5.0 mi North 20.7 mph 27.6 mph N/A   Overcast
5:55 PM 31.1 °F 18.9 °F 31.1 °F 100% 29.56 in 2.0 mi North 19.6 mph - N/A Snow Light Snow
6:15 PM 31.1 °F 18.9 °F 30.2 °F 96% 29.56 in 2.5 mi North 19.6 mph - N/A   Overcast
6:35 PM 30.6 °F 18.6 °F 30.0 °F 98% 29.57 in 3.0 mi North 18.4 mph - N/A   Overcast
6:55 PM 30.6 °F 18.2 °F 30.0 °F 98% 29.57 in 1.2 mi North 19.6 mph 26.5 mph N/A Snow Light Snow
7:15 PM 30.6 °F 19.0 °F 30.0 °F 98% 29.58 in 1.8 mi North 17.3 mph 24.2 mph N/A Snow Light Snow
7:35 PM 30.7 °F 18.8 °F 30.0 °F 97% 29.58 in 2.5 mi North 18.4 mph 23.0 mph N/A   Overcast
7:55 PM 30.9 °F 19.4 °F 30.0 °F 96% 29.58 in 4.0 mi North 17.3 mph - N/A   Overcast
8:15 PM 31.1 °F 20.1 °F 29.8 °F 95% 29.59 in 7.0 mi North 16.1 mph 21.9 mph N/A   Overcast
8:35 PM 31.1 °F 19.7 °F 29.8 °F 95% 29.59 in 7.0 mi North 17.3 mph - N/A   Overcast
8:55 PM 32.0 °F 22.1 °F 30.2 °F 93% 29.60 in 4.0 mi North 13.8 mph 20.7 mph N/A Snow Light Snow
9:15 PM 31.1 °F 20.1 °F 30.2 °F 96% 29.59 in 3.0 mi North 16.1 mph - N/A Snow Light Snow
9:35 PM 31.1 °F 20.5 °F 30.2 °F 96% 29.60 in 2.0 mi North 15.0 mph - N/A Snow Light Snow
9:55 PM 31.1 °F 20.1 °F 30.2 °F 96% 29.60 in 4.0 mi North 16.1 mph - N/A   Overcast
10:15 PM 31.1 °F 21.4 °F 30.2 °F 96% 29.60 in 4.0 mi NNW 12.7 mph - N/A   Overcast
10:35 PM 31.1 °F 21.4 °F 30.4 °F 97% 29.60 in 4.0 mi NNW 12.7 mph - N/A Snow Light Snow
10:55 PM 31.1 °F 21.4 °F 30.2 °F 96% 29.60 in 4.0 mi NNW 12.7 mph - N/A Snow Light Snow
11:15 PM 31.1 °F 20.9 °F 30.6 °F 98% 29.60 in 4.0 mi NNW 13.8 mph 17.3 mph N/A   Overcast
11:35 PM 31.1 °F 20.9 °F 30.6 °F 98% 29.60 in 5.0 mi NNW 13.8 mph - N/A   Overcast
11:55 PM 31.1 °F 21.4 °F 30.4 °F 97% 29.60 in 7.0 mi NNW 12.7 mph - N/A   Overcast